FW1757 Weather Reports


time (UTC)temp
C
wind
direction
speed
KPH
gust
KPH
rain 1hr
cm
rain 24hr
cm
rain mn
cm
humidity
%
barometer
mb
20260901203548 20 292 0.0 0.0 0.00 0.00 0.00 57 1006.8
20260901203054 20 248 0.0 0.0 0.00 0.00 0.00 57 1006.9
20260901202545 20 272 0.0 0.0 0.00 0.00 0.00 58 1006.9
20260901202045 20 207 0.0 0.0 0.00 0.00 0.00 57 1006.9
20260901201550 20 243 0.0 0.0 0.00 0.00 0.00 56 1007.0
20260901201046 21 305 0.0 0.0 0.00 0.00 0.00 56 1006.9
20260901200545 21 297 0.0 0.0 0.00 0.00 0.00 56 1006.8
20260901200044 20 290 0.0 0.0 0.00 0.00 0.00 56 1006.9
20260901195544 20 311 0.0 0.0 0.00 0.00 0.00 57 1006.9
20260901195042 20 313 0.0 0.0 0.00 0.00 0.00 58 1007.0
20260901194543 20 292 0.0 0.0 0.00 0.00 0.00 56 1007.1
20260901194042 20 284 0.0 0.0 0.00 0.00 0.00 57 1007.1
20260901193540 20 297 0.0 0.0 0.00 0.00 0.00 58 1007.3
20260901193039 20 313 0.0 0.0 0.00 0.00 0.00 58 1007.5
20260901192538 20 280 0.0 0.0 0.00 0.00 0.00 58 1007.5
20260901192038 20 303 0.0 0.0 0.00 0.00 0.00 59 1007.7
20260901191542 19 287 0.0 0.0 0.00 0.00 0.00 59 1007.7
20260901191039 19 246 0.0 0.0 0.00 0.00 0.00 59 1007.8
20260901190537 19 308 0.0 0.0 0.00 0.00 0.00 59 1007.9
20260901190039 19 286 0.0 0.0 0.00 0.00 0.00 60 1007.8
20260901185536 19 300 0.0 0.0 0.00 0.00 0.00 60 1007.8
20260901185036 19 267 0.0 0.0 0.00 0.00 0.00 61 1007.9
20260901184534 18 292 0.0 0.0 0.00 0.00 0.00 61 1007.8
20260901184034 18 284 0.0 0.0 0.00 0.00 0.00 61 1007.9
20260901183537 18 279 0.0 0.0 0.00 0.00 0.00 62 1007.9
20260901183056 18 291 0.0 0.0 0.00 0.00 0.00 62 1007.9
20260901182533 18 264 0.0 0.0 0.00 0.00 0.00 63 1007.9
20260901182034 18 289 0.0 0.0 0.00 0.00 0.00 63 1007.9
20260901181534 18 278 0.0 0.0 0.00 0.00 0.00 63 1007.9
20260901181034 18 288 0.0 0.0 0.00 0.00 0.00 63 1008.0
20260901180533 18 246 0.0 0.0 0.00 0.00 0.00 64 1008.1
20260901180033 18 268 0.0 0.0 0.00 0.00 0.00 65 1008.0
20260901175533 17 250 0.0 0.0 0.00 0.00 0.00 66 1008.0
20260901175032 17 290 0.0 0.0 0.00 0.00 0.00 65 1008.1
20260901174532 17 298 0.0 0.0 0.00 0.00 0.00 66 1008.0
20260901174031 17 284 0.0 0.0 0.00 0.00 0.00 66 1008.0
20260901173531 17 265 0.0 0.0 0.00 0.00 0.00 67 1007.8
20260901173031 17 258 0.0 0.0 0.00 0.00 0.00 67 1007.9
20260901172533 17 298 0.0 0.0 0.00 0.00 0.00 67 1007.9
20260901172031 17 252 0.0 0.0 0.00 0.00 0.00 68 1007.9
20260901171546 16 275 0.0 0.0 0.00 0.00 0.00 68 1008.0
20260901171034 16 271 0.0 0.0 0.00 0.00 0.00 68 1007.9
20260901170530 16 286 0.0 0.0 0.00 0.00 0.00 68 1007.8
20260901170043 16 289 0.0 0.0 0.00 0.00 0.00 69 1007.9
20260901165530 16 294 0.0 0.0 0.00 0.00 0.00 68 1007.9
20260901165031 16 321 0.0 0.0 0.00 0.00 0.00 69 1007.8
20260901164530 16 263 0.0 0.0 0.00 0.00 0.00 69 1007.9
20260901164030 16 286 0.0 0.0 0.00 0.00 0.00 69 1008.0
20260901163529 16 228 0.0 0.0 0.00 0.00 0.00 70 1007.9
20260901163038 16 315 0.0 0.0 0.00 0.00 0.00 70 1008.0
20260901162529 16 293 0.0 0.0 0.00 0.00 0.00 70 1007.9
20260901162032 16 296 0.0 0.0 0.00 0.00 0.00 70 1008.0
20260901161530 16 321 0.0 0.0 0.00 0.00 0.00 71 1007.8
20260901161030 16 261 0.0 0.0 0.00 0.00 0.00 71 1008.0
20260901160528 16 278 0.0 0.0 0.00 0.00 0.00 71 1007.8
20260901160032 16 308 0.0 0.0 0.00 0.00 0.00 71 1007.8
20260901155528 16 265 0.0 0.0 0.00 0.00 0.00 71 1007.9
20260901155027 16 278 0.0 0.0 0.00 0.00 0.00 71 1007.9
20260901154527 16 336 0.0 0.0 0.00 0.00 0.00 71 1007.9
20260901154028 15 257 0.0 0.0 0.00 0.00 0.00 71 1007.9
20260901153529 15 263 0.0 0.0 0.00 0.00 0.00 71 1007.7
20260901153029 15 282 0.0 0.0 0.00 0.00 0.00 71 1007.9
20260901152529 15 250 0.0 0.0 0.00 0.00 0.00 71 1007.8
20260901152026 15 248 0.0 0.0 0.00 0.00 0.00 71 1007.8
20260901151526 15 236 0.0 0.0 0.00 0.00 0.00 71 1008.0
20260901151026 15 236 0.0 0.0 0.00 0.00 0.00 71 1007.8
20260901150526 15 240 0.0 0.0 0.00 0.00 0.00 71 1007.7
20260901150025 15 285 0.0 0.0 0.00 0.00 0.00 71 1007.8
20260901145525 15 261 0.0 0.0 0.00 0.00 0.00 71 1007.8
20260901145024 15 267 0.0 0.0 0.00 0.00 0.00 71 1007.7
20260901144523 15 271 0.0 0.0 0.00 0.00 0.00 71 1007.6
20260901144023 15 244 0.0 0.0 0.00 0.00 0.00 71 1007.7
20260901143523 16 211 0.0 0.0 0.00 0.00 0.00 71 1007.6
20260901143022 16 237 0.0 0.0 0.00 0.00 0.00 71 1007.6
20260901142521 16 244 0.0 0.0 0.00 0.00 0.00 71 1007.5
20260901142024 16 254 0.0 0.0 0.00 0.00 0.00 71 1007.6
20260901141531 16 242 0.0 0.0 0.00 0.00 0.00 71 1007.5
20260901141023 16 232 0.0 0.0 0.00 0.00 0.00 71 1007.5
20260901140520 16 205 0.0 0.0 0.00 0.00 0.00 71 1007.3
20260901140022 16 234 0.0 0.0 0.00 0.00 0.00 71 1007.3
20260901135521 16 287 0.0 0.0 0.00 0.00 0.00 71 1007.2
20260901135019 16 261 0.0 0.0 0.00 0.00 0.00 71 1007.3
20260901134518 16 281 0.0 0.0 0.00 0.00 0.00 70 1007.3
20260901134017 16 241 0.0 0.0 0.00 0.00 0.00 70 1007.1
20260901133520 16 265 0.0 0.0 0.00 0.00 0.00 70 1007.1
20260901133018 16 300 0.0 0.0 0.00 0.00 0.00 70 1007.0
20260901132515 16 252 0.0 0.0 0.00 0.00 0.00 70 1006.9
20260901132018 16 286 0.0 0.0 0.00 0.00 0.00 70 1006.9
20260901131518 16 274 0.0 0.0 0.00 0.00 0.00 70 1006.9
20260901131019 16 292 0.0 0.0 0.00 0.00 0.00 70 1006.9
20260901130615 16 254 0.0 0.0 0.00 0.00 0.00 70 1006.8
20260901130013 16 301 0.0 0.0 0.00 0.00 0.00 70 1006.8
20260901125511 16 286 0.0 0.0 0.00 0.00 0.00 69 1006.7
20260901125011 16 263 0.0 0.0 0.00 0.00 0.00 69 1006.8
20260901124510 16 248 0.0 0.0 0.00 0.00 0.00 69 1006.7
20260901124008 16 233 0.0 0.0 0.00 0.00 0.00 69 1006.9
20260901123508 17 247 0.0 0.0 0.00 0.00 0.00 69 1006.6
20260901123010 17 271 0.0 0.0 0.00 0.00 0.00 69 1006.6
20260901122506 17 256 0.0 0.0 0.00 0.00 0.00 68 1006.6
20260901122006 17 289 0.0 0.0 0.00 0.00 0.00 68 1006.6
20260901121506 17 287 0.0 0.0 0.00 0.00 0.00 68 1006.6
20260901121010 17 304 0.0 0.0 0.00 0.00 0.00 68 1006.7
20260901120505 17 242 0.0 0.0 0.00 0.00 0.00 67 1006.7
20260901120005 17 244 0.0 0.0 0.00 0.00 0.00 67 1006.6
20260901115504 17 246 0.0 0.0 0.00 0.00 0.00 67 1006.7
20260901115003 17 247 0.0 0.0 0.00 0.00 0.00 67 1006.8
20260901114502 17 267 0.0 0.0 0.00 0.00 0.00 67 1006.6
20260901114003 17 209 0.0 0.0 0.00 0.00 0.00 67 1006.6
20260901113502 17 261 0.0 0.0 0.00 0.00 0.00 67 1006.6
20260901113000 17 230 0.0 0.0 0.00 0.00 0.00 66 1006.6
20260901112600 17 258 0.0 0.0 0.00 0.00 0.00 66 1006.6
20260901112104 17 259 0.0 0.0 0.00 0.00 0.00 66 1006.5
20260901111603 18 260 0.0 0.0 0.00 0.00 0.00 66 1006.5
20260901111059 18 265 0.0 0.0 0.00 0.00 0.00 65 1006.5
20260901110558 18 228 0.0 0.0 0.00 0.00 0.00 65 1006.5
20260901110059 18 273 0.0 0.0 0.00 0.00 0.00 65 1006.3
20260901105559 18 277 0.0 0.0 0.00 0.00 0.00 65 1006.5
20260901105057 18 242 0.0 0.0 0.00 0.00 0.00 64 1006.5
20260901104601 18 282 0.0 0.0 0.00 0.00 0.00 64 1006.4
20260901104057 18 242 0.0 0.0 0.00 0.00 0.00 64 1006.4
20260901103556 18 198 0.0 0.0 0.00 0.00 0.00 63 1006.3
20260901103059 18 269 0.0 0.0 0.00 0.00 0.00 63 1006.3
20260901102557 18 242 0.0 0.0 0.00 0.00 0.00 63 1006.3
20260901102057 18 253 0.0 0.0 0.00 0.00 0.00 62 1006.4
20260901101606 18 263 0.0 0.0 0.00 0.00 0.00 63 1006.5
20260901101056 18 283 0.0 0.0 0.00 0.00 0.00 63 1006.4
20260901100556 18 224 0.0 0.0 0.00 0.00 0.00 63 1006.3
20260901100107 18 256 0.0 0.0 0.00 0.00 0.00 63 1006.2
20260901095556 18 250 0.0 0.0 0.00 0.00 0.00 64 1006.2
20260901095055 18 223 0.0 0.0 0.00 0.00 0.00 64 1006.4
20260901094555 18 274 0.0 0.0 0.00 0.00 0.00 64 1006.4
20260901094056 18 309 0.0 0.0 0.00 0.00 0.00 63 1006.4
20260901093554 18 256 0.0 0.0 0.00 0.00 0.00 63 1006.4
20260901093054 18 252 0.0 0.0 0.00 0.00 0.00 63 1006.4
20260901092554 18 252 0.0 0.0 0.00 0.00 0.00 63 1006.3
20260901092054 18 252 0.0 0.0 0.00 0.00 0.00 62 1006.4
20260901091554 18 266 0.0 0.0 0.00 0.00 0.00 63 1006.4
20260901091054 18 256 0.0 0.0 0.00 0.00 0.00 62 1006.5
20260901090554 18 269 0.0 0.0 0.00 0.00 0.00 62 1006.3
20260901090100 18 278 0.0 0.0 0.00 0.00 0.00 62 1006.2
20260901085552 18 273 0.0 0.0 0.00 0.00 0.00 61 1006.4
20260901085051 18 248 0.0 0.0 0.00 0.00 0.00 59 1006.4
20260901084607 18 272 0.0 0.0 0.00 0.00 0.00 59 1006.4
20260901084050 18 275 0.0 0.0 0.00 0.00 0.00 57 1006.4
20260901083550 18 242 0.0 0.0 0.00 0.00 0.00 56 1006.5
20260901083049 18 242 0.0 0.0 0.00 0.00 0.00 56 1006.5
20260901082548 18 242 0.0 0.0 0.00 0.00 0.00 55 1006.6
20260901082048 18 242 0.0 0.0 0.00 0.00 0.00 54 1006.6
20260901081547 18 242 0.0 0.0 0.00 0.00 0.00 53 1006.6
20260901081048 18 244 0.0 0.0 0.00 0.00 0.00 52 1006.6
20260901080546 18 244 0.0 0.0 0.00 0.00 0.00 52 1006.6
20260901080105 18 257 0.0 0.0 0.00 0.00 0.00 51 1006.6
20260901075546 18 261 0.0 0.0 0.00 0.00 0.00 51 1006.6
20260901075045 18 250 0.0 0.0 0.00 0.00 0.00 51 1006.6
20260901074547 18 254 0.0 0.0 0.00 0.00 0.00 50 1006.5
20260901074047 18 254 0.0 0.0 0.00 0.00 0.00 50 1006.4
20260901073543 18 254 0.0 0.0 0.00 0.00 0.00 49 1006.4
20260901073049 18 254 0.0 0.0 0.00 0.00 0.00 49 1006.4
20260901072542 18 254 0.0 0.0 0.00 0.00 0.00 48 1006.4
20260901072048 18 254 0.0 0.0 0.00 0.00 0.00 48 1006.3
20260901071541 18 254 0.0 0.0 0.00 0.00 0.00 48 1006.3
20260901071040 18 254 0.0 0.0 0.00 0.00 0.00 47 1006.3
20260901070543 18 257 0.0 0.0 0.00 0.00 0.00 47 1006.3
20260901070039 18 215 0.0 0.0 0.00 0.00 0.00 47 1006.2
20260901065539 18 215 0.0 0.0 0.00 0.00 0.00 46 1006.1
20260901065038 18 215 0.0 0.0 0.00 0.00 0.00 46 1006.2
20260901064538 18 215 0.0 0.0 0.00 0.00 0.00 46 1006.2
20260901064037 18 215 0.0 0.0 0.00 0.00 0.00 46 1006.1
20260901063537 18 215 0.0 0.0 0.00 0.00 0.00 46 1006.1
20260901063037 18 215 0.0 0.0 0.00 0.00 0.00 45 1006.2
20260901062537 18 215 0.0 0.0 0.00 0.00 0.00 45 1006.2
20260901062037 18 213 0.0 0.0 0.00 0.00 0.00 45 1006.2
20260901061537 18 211 0.0 0.0 0.00 0.00 0.00 45 1006.3
20260901061037 18 159 0.0 0.0 0.00 0.00 0.00 44 1006.2
20260901060537 18 159 0.0 0.0 0.00 0.00 0.00 44 1006.2
20260901060041 19 159 0.0 0.0 0.00 0.00 0.00 43 1006.2
20260901055536 19 159 0.0 0.0 0.00 0.00 0.00 43 1006.2
20260901055036 19 159 0.0 0.0 0.00 0.00 0.00 42 1006.2
20260901054537 20 159 0.0 0.0 0.00 0.00 0.00 41 1006.4
20260901054036 20 159 0.0 0.0 0.00 0.00 0.00 41 1006.5
20260901053535 20 159 0.0 0.0 0.00 0.00 0.00 41 1006.5
20260901053045 20 159 0.0 0.0 0.00 0.00 0.00 41 1006.5
20260901052535 20 159 0.0 0.0 0.00 0.00 0.00 40 1006.5
20260901052035 20 159 0.0 0.0 0.00 0.00 0.00 40 1006.5
20260901051535 20 159 0.0 0.0 0.00 0.00 0.00 39 1006.6
20260901051035 20 159 0.0 0.0 0.00 0.00 0.00 39 1006.5
20260901050537 20 159 0.0 0.0 0.00 0.00 0.00 38 1006.5
20260901050036 20 159 0.0 0.0 0.00 0.00 0.00 38 1006.3
20260901045536 20 159 0.0 0.0 0.00 0.00 0.00 38 1006.4
20260901045034 21 159 0.0 0.0 0.00 0.00 0.00 38 1006.3
20260901044535 21 159 0.0 0.0 0.00 0.00 0.00 37 1006.3
20260901044035 21 159 0.0 0.0 0.00 0.00 0.00 37 1006.2
20260901043535 21 159 0.0 0.0 0.00 0.00 0.00 37 1006.2
20260901043033 21 159 0.0 0.0 0.00 0.00 0.00 37 1006.2
20260901042533 21 159 0.0 0.0 0.00 0.00 0.00 36 1006.2
20260901042037 21 159 0.0 0.0 0.00 0.00 0.00 36 1006.2
20260901041540 21 159 0.0 0.0 0.00 0.00 0.00 36 1006.2
20260901041036 21 159 0.0 0.0 0.00 0.00 0.00 36 1006.1
20260901040537 21 159 0.0 0.0 0.00 0.00 0.00 35 1006.0
20260901040036 21 159 0.0 0.0 0.00 0.00 0.00 35 1006.0
20260901035536 21 155 0.0 0.0 0.00 0.00 0.00 34 1005.9
20260901035032 21 155 0.0 0.0 0.00 0.00 0.00 35 1005.8
20260901034533 21 155 0.0 0.0 0.00 0.00 0.00 35 1005.9
20260901034032 21 155 0.0 0.0 0.00 0.00 0.00 34 1005.8
20260901033535 21 155 0.0 0.0 0.00 0.00 0.00 34 1005.8
20260901033032 21 155 0.0 0.0 0.00 0.00 0.00 34 1005.7
20260901032532 21 155 0.0 0.0 0.00 0.00 0.00 34 1005.6
20260901032032 21 155 0.0 0.0 0.00 0.00 0.00 35 1005.5
20260901031531 21 155 0.0 0.0 0.00 0.00 0.00 34 1005.5
20260901031032 21 155 0.0 0.0 0.00 0.00 0.00 35 1005.6
20260901030533 21 155 0.0 0.0 0.00 0.00 0.00 34 1005.6
20260901030031 21 155 0.0 0.0 0.00 0.00 0.00 34 1005.5
20260901025531 22 155 0.0 0.0 0.00 0.00 0.00 33 1005.5
20260901025031 22 155 0.0 0.0 0.00 0.00 0.00 33 1005.5
20260901024530 23 155 0.0 0.0 0.00 0.00 0.00 32 1005.5
20260901024033 23 155 0.0 0.0 0.00 0.00 0.00 31 1005.4
20260901023529 23 155 0.0 0.0 0.00 0.00 0.00 31 1005.3
20260901023029 24 155 0.0 0.0 0.00 0.00 0.00 30 1005.4
20260901022530 25 155 0.0 0.0 0.00 0.00 0.00 29 1005.4
20260901022030 25 155 0.0 0.0 0.00 0.00 0.00 28 1005.4
20260901021534 26 155 0.0 0.0 0.00 0.00 0.00 27 1005.4
20260901021029 27 155 0.0 0.0 0.00 0.00 0.00 27 1005.4
20260901020528 27 155 0.0 0.0 0.00 0.00 0.00 26 1005.3
20260901020029 28 155 0.0 0.0 0.00 0.00 0.00 25 1005.4
20260901015527 28 155 0.0 0.0 0.00 0.00 0.00 24 1005.5
20260901015026 29 155 0.0 0.0 0.00 0.00 0.00 24 1005.6
20260901014526 29 155 0.0 0.0 0.00 0.00 0.00 23 1005.5
20260901014026 30 155 0.0 0.0 0.00 0.00 0.00 21 1005.6
20260901013526 30 155 0.0 0.0 0.00 0.00 0.00 21 1005.5
20260901013026 30 155 0.0 0.0 0.00 0.00 0.00 21 1005.6
20260901012525 30 155 0.0 0.0 0.00 0.00 0.00 21 1005.6
20260901012025 30 155 0.0 0.0 0.00 0.00 0.00 21 1005.6
20260901011535 30 151 0.0 0.0 0.00 0.00 0.00 21 1005.7
20260901011025 31 151 0.0 0.0 0.00 0.00 0.00 20 1005.6
20260901010525 31 150 0.0 0.0 0.00 0.00 0.00 20 1005.6
20260901010035 31 150 0.0 0.0 0.00 0.00 0.00 20 1005.6
20260901005524 31 199 0.0 0.0 0.00 0.00 0.00 20 1005.7
20260901005024 31 152 0.0 0.0 0.00 0.00 0.00 20 1005.7
20260901004525 31 159 0.0 0.0 0.00 0.00 0.00 20 1005.7
20260901004023 31 150 0.0 0.0 0.00 0.00 0.00 20 1005.7
20260901003524 31 147 0.0 0.0 0.00 0.00 0.00 20 1005.8
20260901003023 31 128 0.0 0.0 0.00 0.00 0.00 19 1005.8
20260901002523 31 167 0.0 0.0 0.00 0.00 0.00 20 1005.9
20260901002023 31 150 0.0 0.0 0.00 0.00 0.00 19 1005.8
20260901001527 31 147 0.0 0.0 0.00 0.00 0.00 20 1005.9
20260901001021 31 167 0.0 0.0 0.00 0.00 0.00 20 1006.0
20260901000520 31 155 0.0 0.0 0.00 0.00 0.00 19 1006.1
20260901000021 31 117 0.0 0.0 0.00 0.00 0.00 19 1006.2
20260831235521 31 79 0.0 0.0 0.00 0.00 0.00 20 1006.2
20260831235019 31 188 0.0 0.0 0.00 0.00 0.00 20 1006.2
20260831234521 31 141 0.0 0.0 0.00 0.00 0.00 20 1006.5
20260831234019 31 128 0.0 0.0 0.00 0.00 0.00 19 1006.4
20260831233518 31 159 0.0 0.0 0.00 0.00 0.00 19 1006.4
20260831233034 31 126 0.0 0.0 0.00 0.00 0.00 20 1006.4
20260831232517 31 134 0.0 0.0 0.00 0.00 0.00 20 1006.5
20260831232021 32 143 0.0 0.0 0.00 0.00 0.00 19 1006.5
20260831231520 31 156 0.0 0.0 0.00 0.00 0.00 20 1006.5
20260831231015 31 169 0.0 0.0 0.00 0.00 0.00 19 1006.7
20260831230515 31 68 0.0 0.0 0.00 0.00 0.00 19 1006.7
20260831230014 31 143 0.0 0.0 0.00 0.00 0.00 20 1006.8
20260831225514 31 138 0.0 0.0 0.00 0.00 0.00 20 1006.9
20260831225011 31 161 0.0 0.0 0.00 0.00 0.00 20 1007.0
20260831224510 31 155 0.0 0.0 0.00 0.00 0.00 20 1007.2
20260831224010 31 157 0.0 0.0 0.00 0.00 0.00 20 1007.2
20260831223508 31 150 0.0 0.0 0.00 0.00 0.00 21 1007.3
20260831223008 31 133 0.0 0.0 0.00 0.00 0.00 21 1007.5
20260831222506 31 155 0.0 0.0 0.00 0.00 0.00 21 1007.6
20260831222006 30 158 0.0 0.0 0.00 0.00 0.00 21 1007.7
20260831221504 30 162 0.0 0.0 0.00 0.00 0.00 22 1007.7
20260831221004 30 142 0.0 0.0 0.00 0.00 0.00 22 1007.8
20260831220503 30 119 0.0 0.0 0.00 0.00 0.00 22 1007.8
20260831220004 30 151 0.0 0.0 0.00 0.00 0.00 23 1007.9
20260831215501 30 137 0.0 0.0 0.00 0.00 0.00 23 1008.0
20260831215100 30 172 0.0 0.0 0.00 0.00 0.00 23 1008.1
20260831214609 30 155 0.0 0.0 0.00 0.00 0.00 23 1008.2
20260831214101 29 144 0.0 0.0 0.00 0.00 0.00 24 1008.2
20260831213556 29 165 0.0 0.0 0.00 0.00 0.00 24 1008.3
20260831213055 28 130 0.0 0.0 0.00 0.00 0.00 24 1008.3
20260831212554 28 69 0.0 0.0 0.00 0.00 0.00 24 1008.4
20260831212054 28 121 0.0 0.0 0.00 0.00 0.00 25 1008.5
20260831211552 28 123 0.0 0.0 0.00 0.00 0.00 25 1008.5
20260831211050 28 86 0.0 0.0 0.00 0.00 0.00 25 1008.6
20260831210553 28 127 0.0 0.0 0.00 0.00 0.00 25 1008.5
20260831210049 28 181 0.0 0.0 0.00 0.00 0.00 25 1008.6
20260831205552 28 116 0.0 0.0 0.00 0.00 0.00 26 1008.8
20260831205047 28 126 0.0 0.0 0.00 0.00 0.00 26 1008.8
20260831204546 27 149 0.0 0.0 0.00 0.00 0.00 28 1008.9
20260831204045 27 92 0.0 0.0 0.00 0.00 0.00 27 1008.9